Theta_e
304 304 304 304 304 304 304 304 304 304 304 305 305 305 305 306 306 306 306 306 306 306 307 307 306 307 307 307 307 307 308 308 309 308 306 307 307 307 307 308 308 308 308 308 308 309 309 309 309 309 310 310 310 311 310 309 308 311 319 317 316 321 319 316 312 309 311 313 309 306 308 310 310 308 307 307 306 306 305 305 306 306 306 306 305 304 304 304
305 305 305 304 304 304 304 304 305 305 305 305 305 305 306 306 306 306 306 306 306 306 307 307 307 307 307 307 307 307 308 308 309 309 307 307 307 307 307 307 307 308 308 308 308 308 309 309 309 309 309 309 309 309 309 309 307 312 317 313 321 327 315 309 307 305 306 309 307 306 308 308 310 308 306 307 306 304 304 305 305 305 306 305 306 305 304 304
305 305 305 305 305 305 305 305 305 305 305 305 305 306 306 306 306 306 306 306 306 306 306 306 307 306 307 307 307 307 308 307 309 309 307 306 307 307 307 307 307 308 308 308 308 308 308 308 309 309 309 309 308 309 309 309 307 309 309 311 325 322 308 304 304 305 305 305 305 306 306 306 307 306 305 305 305 304 304 305 304 304 306 305 305 304 304 304
305 305 305 305 305 305 305 305 305 305 305 306 306 306 306 306 306 306 306 306 306 306 306 306 307 306 307 308 307 307 307 308 309 309 307 306 307 307 307 307 307 308 308 308 308 309 309 309 309 308 309 309 308 308 308 308 308 308 309 316 318 307 306 306 304 305 304 304 305 306 305 305 306 306 305 304 305 307 305 305 305 305 306 306 305 305 304 304
305 305 305 305 305 305 305 305 305 305 306 306 306 306 306 306 306 306 306 306 306 306 306 306 307 306 307 308 308 307 308 310 310 307 307 307 307 307 307 307 307 308 307 308 308 308 309 309 309 309 309 309 308 308 308 306 307 308 309 311 308 302 306 307 304 305 304 303 304 304 305 305 305 304 304 304 305 307 305 305 306 305 305 305 305 304 304 303
305 305 305 305 305 305 305 305 305 305 305 306 306 306 306 306 306 306 306 306 306 306 306 307 307 306 307 308 308 307 308 310 309 306 307 307 307 307 307 307 307 308 307 308 308 308 309 309 309 309 308 308 308 308 308 306 306 310 310 304 303 304 305 306 305 304 304 303 303 304 305 304 303 304 304 303 304 306 305 305 305 305 305 305 304 304 304 303
305 304 305 305 305 305 305 305 305 306 306 305 306 306 306 306 306 306 306 306 307 306 307 306 306 307 307 308 308 308 308 308 307 306 307 307 307 307 307 307 307 307 308 307 308 308 309 309 309 308 308 309 308 307 307 307 305 308 311 305 302 304 303 305 305 304 304 303 303 304 304 303 303 305 303 302 305 305 305 305 304 304 304 304 304 304 304 304
305 304 305 305 305 305 305 306 306 306 306 306 306 306 306 306 306 306 306 306 306 306 307 307 307 307 307 307 308 309 309 308 307 306 307 307 307 307 307 307 307 307 308 307 308 308 309 309 309 308 309 309 308 308 307 308 308 309 311 306 302 303 303 304 304 304 304 302 303 303 303 303 303 303 301 303 306 305 304 304 304 304 304 304 304 304 304 303
304 304 304 305 305 305 305 306 306 306 306 306 306 306 306 306 306 306 306 306 306 306 307 307 307 307 308 307 307 310 310 308 308 306 307 307 307 307 307 307 307 308 307 308 308 308 309 308 309 308 308 308 308 309 307 308 311 308 308 305 302 303 303 303 304 303 303 302 302 302 302 302 302 302 302 305 306 305 305 304 304 303 303 303 303 303 303 303
305 305 305 305 305 305 305 305 305 306 306 306 306 306 306 306 306 306 306 306 306 306 307 307 307 307 308 307 308 310 309 308 308 307 306 307 307 307 307 307 307 308 307 308 307 307 308 308 308 308 308 308 308 309 306 307 310 307 304 304 302 303 303 303 303 303 302 302 302 302 303 302 301 302 304 306 306 305 305 305 304 304 303 303 303 303 303 303
305 305 305 305 305 305 305 305 306 306 306 306 306 306 306 306 306 306 306 306 306 307 307 307 307 307 308 308 309 308 308 307 307 306 306 306 307 307 307 307 307 307 307 307 307 307 307 307 308 307 309 309 307 307 306 307 307 304 303 305 304 303 303 303 302 302 302 303 302 302 302 301 301 302 305 306 306 305 305 305 305 304 303 303 303 302 303 302
307 306 305 305 305 305 305 305 305 306 306 306 306 306 306 306 306 306 306 306 306 307 307 307 307 307 307 308 309 308 307 307 307 306 306 306 307 307 307 307 307 307 307 307 307 307 307 307 307 308 310 308 308 307 306 307 305 304 304 307 309 309 308 304 302 302 302 303 302 302 304 306 305 303 306 306 305 305 304 305 305 304 303 302 302 302 302 302
309 307 306 305 305 305 305 305 305 306 306 306 306 306 306 307 307 307 307 306 306 306 307 307 307 307 307 308 308 307 306 306 306 306 306 307 306 307 307 307 307 307 307 307 307 307 306 307 306 308 309 308 309 307 307 304 303 305 304 306 310 315 316 305 299 301 301 302 302 303 308 316 314 305 305 306 304 304 304 304 304 303 303 302 302 302 301 301
308 307 306 305 305 305 305 305 306 307 307 307 307 307 307 307 307 307 307 306 306 306 307 307 307 308 308 309 308 307 307 306 306 306 306 306 306 307 307 307 307 307 307 306 307 307 306 307 306 307 308 308 307 306 310 309 306 308 305 309 312 312 322 310 298 300 302 302 302 304 308 312 313 306 304 306 304 304 304 304 304 303 303 302 302 301 301 300
306 306 306 306 306 305 306 306 306 307 308 308 308 308 308 307 307 307 307 307 306 307 307 306 307 308 308 309 308 307 307 306 306 306 306 307 307 307 307 307 307 307 307 307 307 307 306 307 307 308 306 306 308 309 316 316 315 314 308 316 316 309 321 316 299 299 303 302 300 304 309 308 307 304 304 305 304 304 304 304 303 302 303 301 301 301 300 300
305 305 305 306 306 306 307 307 307 307 307 308 308 308 308 308 307 307 307 307 307 307 307 307 307 307 308 308 308 307 307 307 307 306 306 307 306 307 307 307 307 307 307 307 307 307 307 307 306 307 305 305 313 320 320 315 318 318 310 314 317 311 315 314 303 298 300 303 301 303 308 309 307 303 303 304 304 304 304 304 303 302 302 301 301 300 299 300
305 305 305 306 307 307 307 307 307 307 307 308 308 308 308 308 309 309 309 308 308 308 307 307 307 307 308 308 307 307 307 307 306 306 306 306 306 307 307 307 307 307 307 307 307 307 307 307 306 307 307 307 313 318 316 315 319 317 309 311 315 312 310 312 311 302 298 302 303 303 304 305 306 303 302 303 303 303 303 304 303 301 301 300 300 300 299 299
305 306 306 307 307 307 307 307 307 306 306 307 308 308 309 309 310 311 310 309 309 308 307 308 308 308 309 308 307 306 307 307 306 306 306 307 307 307 307 308 308 307 307 307 307 307 306 306 307 311 313 311 312 312 312 319 321 312 310 311 312 311 308 310 313 305 300 303 304 304 304 304 304 302 301 302 302 302 302 302 301 299 299 299 300 299 299 298
306 307 307 306 307 306 306 307 307 306 306 307 308 309 309 308 310 311 310 309 309 310 310 308 308 309 308 307 306 306 307 307 307 307 306 307 307 307 308 307 308 307 307 308 308 307 306 307 309 312 316 315 314 314 314 319 316 309 311 312 310 310 308 308 311 307 302 304 305 304 305 304 304 303 301 300 301 300 300 299 298 298 298 298 299 298 298 298
307 307 307 306 307 307 306 306 307 306 306 307 307 308 308 307 309 311 310 309 309 308 308 306 306 307 307 306 307 307 307 307 307 307 306 307 307 307 308 307 308 308 307 310 310 307 306 309 313 314 316 316 313 312 311 312 310 307 309 310 309 309 307 307 310 306 300 303 309 306 304 305 303 302 300 297 297 297 297 296 296 297 297 298 298 298 298 298
307 307 307 307 308 308 307 306 306 306 306 306 306 307 307 306 309 310 308 308 309 308 306 305 306 306 306 307 307 307 307 308 307 307 307 307 307 307 307 307 308 308 308 306 307 309 307 311 319 319 314 309 309 310 308 306 307 307 308 307 308 308 308 307 306 305 302 303 310 306 303 305 302 300 297 295 296 295 295 295 296 297 297 298 298 298 298 298
306 306 306 307 308 308 307 307 307 307 307 307 306 306 306 306 307 307 307 308 310 309 307 306 306 307 307 307 307 307 307 307 307 307 307 306 307 307 306 308 310 310 309 307 309 314 313 315 320 314 305 303 308 311 309 308 307 308 308 307 309 309 309 309 306 305 304 303 309 307 303 305 302 298 296 294 295 295 296 296 296 297 297 297 298 298 298 298
306 306 307 307 307 307 307 307 307 307 307 307 307 306 305 306 306 307 307 308 309 309 308 307 307 307 307 307 307 307 307 306 307 307 307 306 307 307 306 309 312 311 311 312 313 314 316 316 311 303 300 303 307 309 308 308 309 309 308 306 309 308 307 311 309 307 306 304 306 306 303 305 303 298 296 295 295 295 296 296 296 296 297 297 297 297 297 297
306 306 306 306 307 307 307 308 307 307 307 306 307 306 305 305 306 307 307 308 310 310 309 308 308 307 307 307 307 308 307 306 307 306 306 307 306 307 307 307 310 309 310 313 313 313 315 310 301 300 304 305 304 307 307 306 309 313 311 307 309 309 306 309 309 306 306 304 302 303 305 305 301 299 298 296 295 295 295 295 296 295 296 296 296 296 297 297
307 306 307 307 307 307 307 307 307 307 307 307 306 305 305 305 306 307 307 309 311 311 311 309 308 307 307 308 307 307 308 307 306 306 306 306 306 307 307 306 306 309 312 312 310 312 313 305 299 303 309 308 305 307 308 306 307 313 313 308 307 308 306 306 307 306 306 306 302 302 308 308 301 298 298 296 295 295 294 294 294 295 295 295 295 295 296 296
306 307 307 307 307 307 307 307 307 307 307 307 306 305 305 305 307 307 310 317 315 310 311 310 308 308 307 307 307 307 308 308 306 306 307 306 306 306 306 307 305 306 310 310 309 309 307 302 302 307 310 309 308 307 308 307 307 309 310 307 306 306 305 304 304 305 307 307 302 301 307 308 303 298 297 296 295 294 294 293 293 294 294 294 295 295 295 296
307 307 307 307 307 307 307 307 306 306 307 306 306 306 304 306 308 306 311 323 318 308 310 311 309 308 307 307 307 308 308 308 307 306 306 306 307 306 307 309 307 305 305 306 310 309 305 304 306 309 311 309 308 307 307 308 309 310 306 304 305 304 303 304 302 303 305 304 303 302 303 306 304 299 296 296 295 295 294 294 293 293 293 293 294 295 295 295
307 307 307 307 307 307 307 307 306 307 306 306 306 305 305 309 308 308 315 318 310 308 309 310 309 307 307 307 306 307 307 307 307 307 306 306 306 305 306 307 306 308 304 304 313 311 304 307 307 307 309 308 308 307 305 305 307 308 304 302 304 302 302 303 302 304 304 302 305 304 301 306 306 298 296 297 295 295 295 294 293 292 292 293 293 294 294 293
307 307 307 307 307 307 307 306 307 307 306 306 306 304 307 309 307 311 320 313 306 309 309 309 310 307 306 309 307 305 306 307 306 306 306 306 305 304 305 305 304 307 303 302 313 313 304 304 304 304 307 308 308 306 304 306 305 303 301 302 303 302 303 302 302 305 305 304 307 306 302 306 306 297 297 298 296 295 294 294 293 291 292 292 292 292 292 292
307 307 307 307 307 307 306 307 307 306 306 306 305 305 307 310 315 318 316 309 307 308 308 307 307 305 307 313 312 306 304 306 305 305 306 305 304 304 304 304 303 308 309 305 311 311 302 301 302 302 304 304 304 302 300 303 301 299 301 303 304 304 302 303 304 304 304 308 309 306 302 304 306 299 297 298 297 295 294 293 292 291 291 292 292 291 291 291
307 307 307 307 307 306 307 306 306 306 306 305 305 307 307 312 326 327 309 304 308 307 309 308 306 307 309 311 311 306 305 305 303 305 308 307 305 303 304 305 304 311 316 312 313 311 305 305 304 301 300 300 301 301 300 299 298 300 305 305 304 306 303 303 308 305 306 312 310 304 301 303 306 302 297 296 295 294 293 292 291 290 291 291 291 290 290 291
306 306 306 306 306 306 307 305 306 306 305 306 306 307 311 315 320 316 306 305 307 306 308 307 305 308 309 307 307 306 306 306 304 305 306 308 307 303 303 304 303 309 313 310 310 311 310 308 303 301 300 300 302 305 305 304 303 304 306 307 307 310 308 307 311 308 309 313 306 301 302 302 303 299 295 295 294 293 292 291 290 290 290 291 291 290 290 290
306 306 306 306 306 306 306 305 307 306 305 308 305 307 323 326 310 305 308 310 305 303 305 306 307 308 307 308 308 305 305 305 305 304 303 306 310 305 302 301 301 306 307 305 305 307 310 309 304 304 303 300 301 304 305 306 305 303 305 309 309 308 307 309 310 305 306 309 303 299 301 302 301 296 294 294 293 292 291 290 290 290 289 290 290 290 290 290
306 306 306 306 306 306 306 306 306 306 306 307 307 312 324 320 306 303 309 310 306 304 304 305 308 309 306 308 307 305 306 305 304 305 306 310 311 308 306 304 303 304 304 306 305 303 307 309 307 306 303 300 301 302 302 302 303 302 302 304 306 306 305 307 309 306 306 308 303 300 301 304 302 296 293 292 291 291 291 290 290 290 289 289 289 290 290 290
306 306 305 306 306 306 306 306 306 307 307 307 313 320 318 308 305 305 306 307 307 306 305 304 308 311 311 311 308 303 304 306 305 305 308 310 308 306 305 304 303 303 305 308 306 302 304 307 306 303 299 300 302 300 298 300 303 301 300 301 304 307 306 305 307 304 302 305 305 302 300 298 297 295 292 292 291 291 291 290 290 290 289 289 289 289 289 289
305 305 305 306 306 305 307 306 307 308 307 311 319 317 309 304 303 304 303 304 304 304 306 309 310 311 313 313 313 308 302 304 306 305 305 306 304 304 305 303 302 301 302 305 305 304 304 307 307 302 298 299 299 298 298 300 303 301 300 303 302 300 302 304 304 301 299 303 304 302 299 295 294 295 293 292 292 291 291 290 290 290 289 289 289 289 289 289
305 306 306 306 305 306 307 307 309 309 306 313 320 311 304 302 302 303 303 303 302 302 306 309 307 306 308 309 314 313 305 304 305 304 305 306 303 303 305 304 300 298 298 300 304 304 302 305 307 302 301 300 295 296 297 296 299 302 303 303 300 297 301 304 303 303 304 304 303 302 300 297 298 298 294 293 293 292 291 290 290 290 289 289 288 288 288 288
306 307 307 306 306 307 308 308 310 309 306 313 318 310 304 303 302 302 302 301 302 302 305 308 305 304 306 307 311 312 307 306 307 305 305 306 304 302 305 304 300 298 297 297 302 303 300 304 306 300 300 301 295 297 301 298 296 299 299 299 299 300 305 304 302 304 304 303 304 303 298 297 300 299 294 294 294 292 291 290 290 290 289 288 288 288 288 288
307 308 307 305 306 307 307 307 307 307 309 313 315 310 305 304 304 302 302 302 302 303 306 306 303 305 306 305 309 310 307 305 306 304 304 305 304 302 301 302 300 299 298 297 300 303 300 302 305 301 299 300 299 300 304 304 300 297 298 299 299 300 304 303 301 303 304 303 304 304 301 300 299 296 295 294 293 292 291 291 290 290 289 288 288 288 287 287
307 308 306 305 307 308 307 306 306 309 311 309 310 309 305 305 305 303 302 303 302 302 304 304 303 305 307 306 306 306 306 306 305 305 304 303 304 303 300 300 301 300 298 297 298 300 301 301 304 304 300 300 303 303 301 301 301 300 302 302 300 300 302 301 299 300 301 303 303 303 304 301 295 293 294 293 292 291 291 291 290 289 289 288 288 287 287 285
307 308 306 305 308 307 306 307 305 307 311 308 307 309 307 305 305 303 303 303 302 301 302 304 304 304 306 307 306 304 304 307 306 305 305 304 304 303 300 298 300 300 298 300 300 299 300 301 302 303 302 301 304 301 297 298 299 301 302 301 301 301 301 301 301 300 299 301 302 302 303 300 293 292 293 291 291 291 290 290 289 288 288 288 287 287 286 285
307 308 306 305 307 306 307 308 302 303 310 308 304 306 306 306 304 303 303 302 303 302 301 303 304 304 306 305 304 303 303 307 307 305 304 304 303 302 300 298 298 298 298 301 300 297 298 299 300 301 301 301 301 296 293 295 298 299 299 298 300 301 300 299 302 302 299 299 299 299 301 298 292 291 292 291 291 291 290 290 289 288 288 287 287 287 285 284
306 306 305 305 307 306 308 309 304 305 309 305 302 302 303 304 303 303 303 303 303 302 302 304 303 303 303 302 303 304 302 305 307 304 304 305 302 300 299 298 298 297 298 300 300 297 297 299 300 301 301 300 300 297 294 296 299 300 299 298 299 299 298 298 299 300 300 300 299 299 300 297 292 291 292 291 291 290 290 289 288 287 287 286 286 286 284 283
305 306 306 306 307 307 309 310 309 311 310 304 303 303 303 302 301 303 305 304 303 302 303 305 303 301 301 300 302 304 302 304 305 303 303 303 301 298 298 298 298 297 298 299 299 297 299 301 301 301 302 302 304 303 301 300 301 300 300 299 298 297 296 297 296 296 298 300 299 299 300 297 293 292 291 290 290 290 290 288 287 287 286 286 286 285 284 283
305 306 305 306 306 306 308 307 309 315 313 308 306 305 305 304 302 302 304 303 301 300 302 304 301 300 301 300 302 305 303 302 303 303 303 302 301 298 297 298 298 297 297 297 296 296 298 300 299 300 302 302 303 303 302 301 299 298 298 298 297 296 295 296 298 299 300 299 298 299 300 296 293 292 290 289 289 288 288 288 287 286 286 285 285 284 283 283
306 308 307 307 306 305 305 303 305 312 311 310 309 305 305 307 303 301 303 303 301 300 300 302 300 301 303 302 304 307 305 302 302 304 303 305 305 299 297 299 298 296 297 296 295 297 299 299 299 300 301 301 301 300 299 298 297 297 299 298 297 294 292 294 298 299 298 297 297 298 296 295 294 292 290 288 288 288 287 287 286 286 285 284 284 283 283 282
308 308 306 307 306 306 307 304 303 305 305 306 307 303 305 309 305 302 303 302 302 301 300 301 301 301 303 303 303 305 305 303 302 302 301 303 304 299 296 298 297 296 297 295 295 298 300 300 298 299 300 299 298 297 297 297 296 296 297 297 296 294 293 295 297 296 295 296 298 296 294 294 294 291 288 288 287 287 287 286 286 285 284 284 283 283 282 282
308 306 304 305 306 306 308 306 303 302 302 305 306 302 305 309 306 305 304 301 302 301 300 303 303 302 302 301 301 304 305 303 303 303 302 302 301 300 299 297 296 296 297 296 295 295 298 300 297 296 300 299 297 296 296 296 296 295 295 295 294 294 295 296 296 295 295 295 296 295 294 293 291 288 287 287 287 287 286 285 285 284 284 283 282 282 281 280
306 306 303 305 305 304 305 304 302 301 301 304 307 305 306 308 305 303 302 303 305 302 300 303 304 303 303 300 300 303 304 303 302 303 303 301 299 301 302 299 296 296 297 297 294 292 296 301 297 295 298 299 297 297 296 296 297 296 294 294 294 294 295 295 295 295 294 294 295 294 293 292 289 287 287 287 287 286 285 284 284 283 283 282 282 281 280 279
305 306 304 305 304 302 303 303 303 306 306 304 306 305 303 307 307 303 301 303 305 303 301 302 304 302 301 301 302 303 302 300 301 301 300 300 299 300 300 298 297 296 297 297 295 293 296 299 297 296 298 298 298 299 297 296 298 298 295 294 294 294 294 294 293 293 294 295 294 293 292 291 288 286 286 286 286 285 284 284 283 282 282 282 281 280 279 277
306 306 305 307 305 301 302 301 301 310 313 307 305 304 303 305 305 303 303 302 301 303 302 301 302 301 300 301 302 303 300 298 299 299 298 298 299 298 297 296 296 296 298 297 296 296 297 297 298 298 298 298 298 298 297 295 296 297 295 294 294 294 294 293 292 292 293 294 294 292 291 289 286 286 286 285 284 284 283 283 282 282 281 280 279 279 277 276
306 306 305 307 306 301 300 300 301 309 310 303 301 302 302 303 301 301 304 303 301 302 302 299 299 301 303 303 301 300 298 297 296 296 296 296 296 296 296 295 295 296 298 297 296 295 295 297 298 297 297 299 298 296 295 295 296 298 295 292 293 293 293 292 292 291 291 291 291 291 289 286 285 285 284 284 284 283 283 282 282 281 280 279 278 277 276 275
Wind_Speed
8 7 6 5 3 2 1 1 2 2 2 3 5 6 7 6 5 4 2 1 1 0 1 2 3 5 7 8 8 7 5 4 6 7 4 2 1 2 3 4 4 3 3 3 3 4 6 7 7 6 5 5 4 3 4 2 2 3 3 2 2 3 4 5 7 7 4 2 4 8 14 12 5 6 8 6 8 11 10 13 15 15 18 19 17 13 9 7
7 6 5 3 2 1 0 1 2 2 2 3 5 6 5 4 4 4 3 3 2 2 2 3 4 6 9 10 9 8 6 6 7 7 5 2 1 0 2 2 3 3 2 2 3 5 7 7 6 5 5 6 5 4 5 3 2 3 3 2 4 5 5 5 6 7 4 1 4 8 11 12 8 5 5 5 6 8 8 10 14 16 19 20 21 18 15 12
6 5 4 3 2 1 1 2 2 2 3 4 5 5 4 3 3 3 3 3 3 4 4 4 6 7 9 10 8 7 7 8 8 6 5 3 3 3 1 1 2 3 3 3 3 4 5 5 5 5 4 5 4 5 5 3 2 3 3 2 6 6 4 4 6 6 5 4 2 5 8 10 11 7 4 5 6 5 8 12 13 17 22 22 22 20 17 15
6 5 4 3 2 2 2 2 2 2 3 5 5 4 3 2 1 1 2 3 4 4 4 5 7 8 8 8 5 6 6 8 7 5 5 4 4 4 3 1 2 3 3 4 4 4 3 3 3 4 3 3 3 4 5 2 2 3 5 4 5 4 2 5 7 5 4 3 2 3 4 6 11 10 7 5 3 6 12 17 17 18 20 20 22 21 19 17
6 5 5 4 3 2 1 1 1 1 3 4 4 3 2 1 1 3 3 4 4 2 3 6 8 9 8 7 4 6 4 4 4 4 5 4 5 5 4 3 2 3 4 4 5 5 4 3 3 3 3 3 2 3 3 2 2 3 4 4 4 5 2 4 5 6 4 3 3 3 3 4 6 8 12 9 6 10 12 12 12 11 11 12 17 19 20 19
7 7 6 5 3 2 1 1 2 1 2 4 4 3 3 3 3 3 4 5 4 3 4 7 9 9 7 6 4 5 4 1 5 6 5 4 5 6 5 4 3 4 4 4 5 6 5 4 4 4 2 1 2 3 2 2 2 2 3 3 4 6 3 3 3 6 5 4 3 3 5 5 3 5 10 14 18 21 18 12 11 9 6 7 10 14 17 18
7 7 7 7 5 3 2 2 2 2 2 4 5 5 5 5 5 4 4 5 4 4 6 8 9 8 6 5 3 3 5 4 6 5 5 5 5 6 6 5 4 4 5 4 5 6 6 5 4 4 2 0 3 3 1 2 2 2 3 3 4 6 5 4 4 6 6 5 5 3 5 5 4 6 5 14 27 28 24 21 18 15 10 9 10 12 14 15
6 6 7 8 7 5 3 3 3 3 2 2 4 5 6 6 5 5 5 6 6 6 7 8 9 8 6 6 5 5 6 6 6 4 5 5 5 6 6 6 5 4 4 5 5 5 5 5 4 3 1 1 3 3 1 2 1 2 4 3 2 5 6 6 6 7 7 6 6 5 7 7 7 7 8 22 31 26 24 23 22 20 15 13 13 13 13 14
4 4 5 7 7 7 5 4 4 3 3 3 3 4 5 6 6 5 6 7 7 7 8 8 8 8 5 4 6 6 6 6 6 5 5 6 6 6 5 6 5 5 4 4 4 5 5 4 3 3 2 2 3 1 1 1 3 3 4 3 2 2 4 6 7 7 7 7 5 5 8 8 6 6 11 22 20 14 14 14 18 21 19 17 16 14 12 11
2 2 3 5 6 7 7 6 5 5 4 4 4 4 5 6 6 7 7 8 8 8 8 9 9 7 4 4 4 3 5 6 6 5 6 7 7 6 6 6 6 5 4 3 3 3 3 3 3 2 2 1 2 1 1 3 2 1 1 2 2 3 5 5 6 6 6 7 6 5 6 7 5 2 8 16 9 7 10 6 11 17 20 20 17 14 10 8
1 1 2 3 5 7 8 8 7 7 6 5 5 5 5 6 7 8 9 9 9 8 8 9 10 7 5 5 3 3 6 7 5 5 6 7 7 7 7 6 6 5 3 2 2 2 2 2 2 2 2 1 1 1 2 2 1 2 2 3 4 6 7 7 7 6 5 4 6 6 5 8 4 1 12 21 15 11 9 5 7 13 17 18 16 12 8 6
2 2 3 3 4 6 8 8 8 8 7 7 6 6 6 6 7 8 9 9 9 8 8 9 9 7 7 7 6 5 6 6 5 7 6 7 7 7 6 6 5 5 4 2 2 2 2 2 3 3 2 2 1 1 1 1 1 2 4 3 7 8 6 8 7 7 6 1 3 3 4 8 3 9 17 16 11 10 8 6 6 10 14 14 13 10 7 6
3 4 4 4 4 6 8 10 9 8 8 8 8 8 7 7 7 8 7 7 9 8 7 8 8 7 7 7 6 5 5 5 6 8 8 8 7 7 6 5 5 5 4 3 3 3 3 4 4 3 3 2 1 1 1 2 2 2 3 1 5 7 6 5 2 6 7 2 3 4 3 7 6 15 16 8 7 9 7 7 6 7 10 11 11 8 7 6
3 4 4 5 5 6 9 11 9 8 9 10 10 10 9 9 8 8 7 6 8 7 6 8 7 6 6 6 6 6 6 6 7 8 9 9 8 7 6 6 6 6 4 4 3 4 3 4 4 1 2 2 2 2 1 4 3 1 1 2 2 2 5 6 1 8 6 2 5 6 3 7 9 15 13 9 12 11 10 10 8 7 9 10 9 8 7 7
3 4 4 5 6 8 10 10 7 8 11 11 10 10 10 9 8 8 7 5 6 6 6 8 7 6 6 6 6 6 5 5 7 8 9 8 7 7 6 7 7 7 6 4 4 4 3 3 2 1 2 2 3 3 3 4 3 2 1 3 3 2 5 8 0 9 6 2 6 6 2 7 11 13 9 5 5 7 10 11 9 9 10 10 10 10 9 8
3 3 4 5 6 8 9 8 7 9 12 11 9 8 8 7 6 7 6 4 5 6 7 7 7 7 5 5 5 6 5 7 8 9 9 8 8 8 8 8 7 7 6 5 4 3 3 3 1 2 2 2 3 4 3 4 4 3 0 4 3 2 4 7 2 5 3 2 3 4 3 5 6 5 3 6 4 5 9 13 10 10 11 12 13 12 12 11
3 4 4 5 6 7 7 6 7 10 11 10 9 8 6 4 4 4 4 5 6 7 6 5 6 6 4 4 5 6 8 9 10 9 8 7 8 10 10 9 7 6 6 6 6 5 4 1 1 1 2 2 2 4 4 4 4 4 1 2 4 3 3 4 4 3 2 2 3 3 4 7 8 10 6 5 10 10 11 14 11 10 11 13 15 15 15 15
5 5 5 6 6 7 7 7 8 10 11 10 9 6 4 4 3 2 5 6 5 4 3 2 4 3 2 5 6 8 11 11 10 8 7 7 9 10 11 9 6 5 4 4 5 3 3 1 2 0 3 3 2 5 1 5 4 2 3 2 4 3 3 5 5 2 3 1 3 3 5 10 12 16 15 11 11 11 12 13 9 8 11 16 17 17 19 21
5 5 6 6 6 7 8 8 9 11 12 12 10 5 3 6 2 2 6 7 3 2 1 3 5 1 2 8 9 10 12 12 9 6 6 8 9 11 11 8 7 5 3 1 1 1 1 1 2 0 2 3 2 5 7 8 5 2 4 4 4 5 4 5 6 4 4 2 5 7 8 10 12 12 13 17 17 13 11 5 5 11 17 20 21 24 25 26
5 6 5 5 6 8 9 10 10 12 14 14 11 5 5 8 1 1 7 8 7 5 1 4 5 2 4 8 9 12 12 9 7 6 8 10 11 12 10 7 7 5 2 0 1 2 3 2 2 5 6 7 6 7 6 4 3 1 2 3 4 5 6 5 5 5 2 3 6 8 7 9 10 8 13 21 16 6 3 11 16 20 25 27 28 29 28 27
6 5 5 5 6 7 9 11 12 13 15 15 14 10 8 9 3 3 9 6 7 7 3 5 5 4 6 7 9 15 14 7 5 7 10 12 12 10 7 6 4 3 3 1 1 2 2 1 5 7 8 6 5 4 3 2 2 1 2 4 4 4 6 6 3 4 0 2 4 2 3 8 7 7 12 15 10 6 9 17 20 24 28 29 29 28 26 25
5 5 6 6 7 7 8 11 13 13 14 15 17 15 11 10 6 6 7 2 5 7 5 7 6 5 7 6 10 17 14 6 4 8 10 12 12 7 5 5 3 1 4 2 1 4 2 4 7 6 4 1 2 4 4 2 1 0 0 1 4 3 5 6 3 4 2 2 3 3 3 6 5 6 11 14 11 13 17 20 22 26 28 26 27 26 24 24
4 5 6 7 8 8 9 10 12 14 14 15 18 16 13 11 8 8 6 1 3 7 7 7 6 7 9 7 11 17 12 4 5 10 12 13 13 9 4 4 2 1 4 2 2 0 2 4 5 2 2 3 1 4 4 3 2 1 2 1 4 3 1 3 4 4 2 2 3 3 4 4 5 5 10 15 16 21 24 26 26 26 27 25 27 26 25 24
4 5 5 7 8 9 10 9 12 14 14 15 17 15 13 12 9 8 6 2 1 5 7 7 7 8 9 9 15 16 8 4 7 10 13 16 14 8 3 2 3 1 1 0 4 3 5 4 1 3 3 2 2 2 3 1 3 3 4 5 5 4 3 5 3 4 4 3 1 1 3 3 4 6 7 10 17 21 22 27 27 24 25 26 27 27 26 23
5 5 6 7 8 10 11 9 11 14 14 14 15 15 13 11 9 7 4 3 1 5 6 6 6 7 9 12 17 14 5 4 7 8 13 16 11 6 2 1 2 1 3 2 1 3 6 3 1 2 4 4 1 3 2 4 2 5 4 7 6 4 4 3 4 5 4 3 1 2 3 3 3 6 4 5 10 13 15 21 21 21 24 25 26 27 25 23
6 7 7 8 9 11 11 9 12 14 13 13 15 16 13 11 9 5 3 3 2 5 5 5 6 5 10 15 18 12 2 4 7 8 14 14 10 5 2 2 1 1 3 2 1 3 3 3 3 3 3 4 3 3 4 5 2 3 3 4 4 3 0 2 4 3 1 3 2 3 2 3 2 5 3 3 8 8 10 14 16 20 23 23 25 24 23 24
7 8 9 10 10 11 11 10 12 13 12 13 15 16 14 12 8 2 2 5 2 4 3 5 5 5 12 16 15 7 1 7 7 8 15 12 9 5 2 3 1 1 2 1 2 2 1 3 5 5 5 3 3 3 3 5 4 3 3 3 3 1 2 3 0 1 3 3 3 0 4 3 1 2 2 4 9 8 7 8 11 17 21 22 24 23 23 24
8 10 10 11 11 11 12 11 13 13 13 14 15 17 15 12 6 0 4 4 3 4 2 5 4 7 16 13 10 8 2 6 5 7 16 11 8 7 2 1 1 3 3 3 1 4 1 2 2 2 4 2 3 4 4 5 2 5 3 2 1 2 3 3 3 3 2 3 4 3 3 3 2 2 3 3 7 7 5 5 7 14 19 20 23 23 24 23
9 10 11 12 12 12 13 12 12 13 14 15 15 16 15 10 3 2 5 2 3 3 1 6 6 10 19 9 6 13 6 4 6 9 12 7 9 8 1 1 0 2 3 3 4 4 0 0 1 2 1 2 5 5 4 5 2 3 2 1 1 2 1 1 3 2 1 2 4 5 2 2 2 2 4 2 4 5 4 3 5 11 17 18 21 22 21 19
9 10 11 12 12 13 13 12 12 13 14 15 15 15 12 6 2 4 4 1 1 4 3 6 5 9 17 8 4 13 7 3 9 11 9 6 11 13 3 2 3 3 2 4 1 5 2 1 1 2 2 4 3 3 4 5 3 1 2 2 3 4 3 3 2 3 3 2 6 5 2 2 1 4 5 2 3 6 5 4 4 10 16 18 19 19 17 15
9 10 11 13 13 13 13 12 12 12 13 13 13 13 8 2 4 6 2 2 1 4 5 5 4 6 10 5 2 9 6 5 10 11 9 6 10 15 8 2 5 5 4 6 4 6 5 2 1 1 1 2 1 2 1 1 1 2 3 3 4 4 3 3 4 3 3 4 6 3 2 3 1 3 2 1 4 8 6 5 5 8 14 17 17 16 14 12
9 10 11 12 13 13 13 12 12 12 12 12 12 10 2 2 4 2 1 4 2 3 4 2 4 5 5 3 3 6 4 5 8 7 4 3 4 7 6 1 2 5 4 4 4 6 5 1 3 3 1 1 1 3 4 3 4 3 3 4 3 4 4 2 4 1 2 4 3 1 1 1 2 1 2 3 7 9 8 9 10 12 16 17 16 14 12 10
8 8 10 12 12 12 12 11 12 12 12 12 11 5 4 5 2 1 3 4 2 2 2 2 4 4 3 4 4 5 3 3 6 5 1 1 4 2 3 1 1 3 2 2 2 6 5 4 4 2 1 1 2 2 4 3 3 4 2 2 2 2 3 4 4 2 4 5 2 2 2 1 1 1 3 3 8 11 14 16 16 18 18 17 15 12 9 8
7 8 9 10 10 10 11 11 12 12 11 12 7 3 7 4 1 1 3 3 2 4 2 1 5 4 3 3 3 4 3 2 5 6 3 3 4 3 4 5 4 3 1 1 2 2 2 4 4 1 1 2 1 1 1 2 2 3 1 4 2 2 1 4 4 2 5 4 4 3 1 2 2 1 3 4 10 14 16 16 17 17 17 17 16 12 8 6
7 7 7 8 8 9 9 10 11 11 10 8 5 6 6 1 2 1 2 4 3 4 4 2 3 4 4 3 3 2 2 2 4 5 4 3 2 1 2 4 4 3 2 3 2 1 1 4 6 2 1 1 1 1 2 2 2 2 2 3 0 3 3 2 3 3 2 3 4 2 1 0 1 1 1 5 10 11 13 13 15 15 14 16 16 14 9 5
7 6 5 6 8 9 9 10 9 10 8 3 6 6 2 1 1 1 1 3 2 3 6 5 5 4 4 4 4 4 2 1 4 4 3 1 1 1 1 2 2 3 3 1 2 1 1 5 7 4 2 1 1 1 0 2 1 0 1 1 4 3 4 0 2 1 2 1 3 1 3 1 1 2 1 4 5 6 8 10 12 12 13 15 15 14 9 5
6 4 4 7 9 9 9 8 8 8 6 7 7 3 2 1 0 2 2 3 2 2 3 4 3 2 3 3 4 5 4 2 3 3 2 2 0 1 1 1 1 1 2 1 2 2 1 5 7 3 1 2 1 2 3 1 1 1 1 3 3 1 4 2 1 3 3 2 4 0 3 3 3 2 2 3 4 4 4 6 9 10 12 13 14 12 7 4
4 2 5 10 11 9 8 9 7 4 8 10 6 2 1 0 1 2 3 2 2 1 4 2 2 2 1 1 4 5 5 4 4 4 2 2 1 1 1 1 1 1 2 2 1 1 1 4 7 2 1 4 3 2 4 3 0 1 3 3 1 0 1 2 0 2 2 2 4 3 1 3 4 3 5 5 4 4 3 4 6 7 9 11 13 10 4 3
3 2 8 14 11 8 9 8 5 7 11 8 2 1 0 1 1 2 3 2 1 1 2 1 2 2 1 1 2 4 3 2 3 3 1 1 2 1 3 1 1 2 3 1 2 2 0 1 5 3 2 4 4 3 2 4 4 2 2 3 1 3 3 1 1 1 1 2 3 4 3 2 2 2 6 5 3 4 3 2 4 7 8 10 13 7 2 4
2 2 8 14 10 6 6 6 9 13 10 3 2 1 0 1 2 3 3 2 0 1 1 1 1 2 3 1 2 2 2 1 2 2 1 1 2 2 3 2 1 4 4 1 1 1 1 0 4 5 4 3 3 1 0 3 4 3 3 3 2 2 1 1 1 1 1 2 2 2 4 4 2 1 6 6 4 4 4 3 5 7 7 10 11 6 4 5
3 2 9 13 9 6 5 8 12 10 5 2 2 1 1 1 2 3 3 3 1 1 0 2 2 1 1 2 2 2 2 2 1 1 2 1 2 2 3 3 1 3 5 3 2 2 1 1 3 5 5 4 4 3 1 2 3 2 0 0 1 1 2 2 4 2 1 1 3 1 4 5 2 2 4 6 5 4 5 5 4 7 8 10 10 6 6 6
7 3 9 12 7 5 8 10 8 5 4 3 2 1 1 1 2 3 4 3 2 1 1 1 1 0 1 1 2 1 1 3 1 0 2 2 1 1 2 4 3 2 3 2 2 1 1 2 1 5 5 6 8 5 1 1 3 4 1 1 1 1 2 1 5 4 2 1 2 2 3 3 1 2 5 6 6 6 6 6 4 7 10 12 9 7 8 8
11 8 11 11 5 6 10 7 5 5 4 1 1 1 2 2 2 3 3 4 2 2 2 1 0 1 0 1 1 1 1 2 3 1 1 2 1 2 2 5 5 3 2 2 2 2 2 2 2 4 5 5 6 4 3 2 4 3 1 2 2 1 1 3 4 2 2 3 1 1 3 1 1 3 7 8 6 5 5 5 7 10 14 13 9 10 11 10
15 15 17 14 4 5 8 4 1 2 2 1 2 3 3 2 3 3 2 3 3 1 1 1 0 1 1 0 0 2 2 1 2 1 1 1 1 3 3 5 6 4 3 2 2 4 3 0 2 4 6 6 6 6 6 5 3 1 3 2 1 2 1 1 1 1 1 4 2 3 3 0 3 3 5 5 4 3 3 6 11 13 15 14 12 13 14 12
9 11 18 20 13 10 9 5 5 4 1 2 4 3 3 2 3 3 2 2 3 2 1 1 2 1 1 1 1 3 1 1 2 2 3 2 1 3 5 6 6 5 4 3 4 4 1 1 1 2 3 5 5 6 5 5 3 2 3 4 3 2 2 2 1 1 1 2 0 1 2 1 2 3 3 3 3 3 4 8 11 13 15 15 14 14 14 11
4 3 7 14 18 19 16 9 6 5 3 3 3 3 3 2 3 4 3 1 4 4 1 1 3 2 1 3 3 3 2 1 3 3 3 3 3 3 7 7 7 7 6 5 6 4 2 0 1 3 4 5 5 8 6 5 5 5 5 8 6 4 2 1 2 0 2 2 3 1 0 4 2 3 3 5 3 3 6 9 12 14 16 17 15 14 13 8
5 2 2 4 10 15 15 13 10 6 2 2 2 2 3 3 4 4 3 1 3 5 1 0 2 2 2 4 4 3 4 3 3 2 2 3 3 4 7 6 7 9 7 5 6 4 3 2 3 2 6 7 7 10 9 6 5 4 4 7 8 7 4 4 2 3 1 2 3 1 2 7 5 3 5 6 5 5 7 10 14 17 20 21 17 13 10 8
5 3 4 4 3 3 6 9 10 10 6 3 2 1 3 4 4 2 2 3 3 4 3 2 3 4 1 2 2 2 5 5 3 2 2 3 3 5 6 5 7 11 10 6 5 4 4 2 3 1 6 9 8 9 8 4 2 1 3 5 6 7 5 6 1 3 2 2 4 3 6 7 4 4 5 6 8 8 9 13 17 20 22 20 14 11 10 12
9 7 5 7 5 3 3 2 5 10 9 5 3 2 2 4 4 2 2 3 3 3 4 3 5 6 2 1 1 1 3 4 5 4 1 3 4 3 4 2 3 10 13 6 4 4 3 2 2 0 5 10 10 8 4 2 1 2 4 5 5 4 4 4 2 4 3 4 5 5 8 6 4 4 5 8 10 11 13 17 19 22 21 15 11 11 13 16
10 8 8 11 10 7 5 2 2 6 5 5 3 2 1 1 3 4 2 0 2 3 3 3 6 6 2 2 3 2 3 2 4 6 2 3 4 1 1 1 1 8 11 4 2 4 2 1 1 2 3 8 8 6 5 2 1 2 3 5 5 5 4 4 4 5 5 5 5 7 8 3 4 7 9 11 13 15 16 18 21 22 18 12 11 13 16 19
12 11 11 12 7 6 5 3 2 3 3 4 3 1 2 1 2 4 2 2 2 2 3 3 5 4 2 1 2 4 6 4 7 10 7 5 4 2 1 1 1 5 6 3 2 4 3 2 2 5 4 7 4 6 9 6 3 4 3 7 7 5 3 3 5 5 4 5 7 8 6 2 5 11 13 13 16 18 17 20 25 22 14 10 12 15 17 21
13 11 10 9 5 4 4 3 4 4 2 2 1 1 2 2 3 3 2 2 1 2 4 3 2 3 3 3 4 7 11 10 11 13 11 9 8 6 6 6 3 2 2 1 2 2 2 2 2 3 3 6 5 7 10 6 4 2 4 5 5 4 3 4 7 7 4 3 4 5 4 4 8 12 12 12 16 17 18 23 24 16 10 10 11 14 18 24
Wind_Direction
94 94 101 110 126 138 131 87 54 49 77 122 133 133 131 124 112 101 96 72 42 245 221 234 271 283 286 281 271 265 277 309 332 347 328 251 212 198 202 208 202 202 205 195 193 199 200 202 210 204 200 200 202 203 175 174 167 154 119 124 216 197 201 193 183 190 170 243 230 191 188 186 217 219 221 254 240 236 235 226 225 228 230 238 245 248 254 247
88 85 84 86 92 84 355 1 11 43 97 136 140 139 132 114 96 78 63 34 2 314 287 288 299 298 301 294 273 259 269 294 310 327 334 331 36 128 199 205 219 232 238 224 206 209 204 207 215 203 198 198 202 201 187 197 167 141 115 153 225 204 209 199 177 188 175 260 232 196 196 200 215 219 218 247 248 234 238 238 228 231 233 236 244 247 250 247
83 76 66 57 44 25 14 16 33 67 118 141 144 143 134 111 94 66 40 10 344 319 308 307 310 307 312 310 282 251 258 281 288 307 329 343 4 8 1 220 238 252 256 247 217 203 199 206 206 193 190 190 194 197 190 199 192 163 132 199 242 219 225 231 204 200 207 258 270 196 202 212 224 232 222 231 266 258 235 240 227 230 238 238 241 243 246 245
80 70 56 41 26 23 21 25 48 90 129 146 149 148 145 135 102 12 348 338 327 314 312 319 320 311 313 320 293 235 259 285 282 307 333 334 349 348 343 326 282 277 266 252 228 213 213 221 210 198 190 193 198 195 198 210 215 178 154 200 233 192 228 246 218 216 220 246 265 201 189 227 234 232 230 220 279 276 244 247 244 245 255 249 242 243 244 244
77 65 49 32 19 13 14 14 31 105 148 161 163 166 178 208 275 308 317 321 314 298 314 331 330 317 309 319 298 240 267 323 306 324 335 328 338 327 322 325 314 300 279 255 240 237 243 251 243 220 205 216 194 184 213 198 162 190 200 225 205 161 200 266 217 213 221 226 239 196 179 234 233 228 233 215 218 253 255 264 265 263 273 260 249 247 245 244
76 61 48 34 23 9 355 341 327 282 212 201 204 217 232 256 279 295 308 317 311 284 302 325 332 322 303 307 312 262 245 315 318 325 333 329 329 312 304 310 311 307 295 274 253 250 255 258 247 222 200 216 203 200 216 185 169 225 266 255 204 187 206 293 230 224 236 226 217 199 220 240 232 251 245 227 235 253 263 272 276 275 270 252 248 248 246 246
77 62 53 43 37 36 24 2 345 319 265 238 236 245 255 270 280 291 307 318 316 300 301 313 325 323 300 283 295 282 248 269 309 321 333 330 315 302 297 298 304 310 301 284 259 249 254 255 240 216 155 56 230 213 198 226 187 186 275 273 208 218 237 276 259 241 244 236 239 230 243 248 242 271 277 253 257 265 271 269 267 267 260 248 243 246 250 252
79 64 54 46 41 39 29 17 11 4 338 279 259 257 262 272 281 293 308 315 318 317 310 313 320 320 309 271 258 286 276 275 303 315 330 328 308 300 296 294 298 303 295 273 257 245 252 255 240 223 184 217 224 209 183 290 299 171 244 266 198 230 250 261 254 243 246 251 259 253 253 257 265 281 283 273 276 282 279 267 259 256 252 250 248 248 251 251
83 64 51 42 37 30 16 2 354 355 357 341 304 282 276 276 282 294 307 311 317 324 320 320 320 317 319 281 267 291 289 277 292 309 327 325 315 307 297 298 296 290 284 272 265 253 258 255 236 236 244 230 206 219 111 179 278 215 223 250 203 253 274 254 242 239 248 256 256 262 269 272 291 306 281 276 286 303 295 266 248 245 244 245 248 250 251 251
88 53 38 33 29 24 13 1 347 337 332 326 314 301 289 283 286 293 302 307 313 322 324 324 321 314 312 297 281 291 302 292 286 297 316 320 317 314 307 306 298 283 275 278 283 270 264 255 246 245 262 233 166 192 118 161 274 304 236 261 226 287 296 253 243 245 244 256 247 241 273 283 301 351 268 270 283 323 323 286 237 234 236 241 244 246 246 248
37 358 357 8 18 20 13 5 354 342 330 321 315 306 294 289 291 292 297 301 305 317 323 321 319 311 299 297 277 270 304 299 285 294 308 316 314 308 308 305 295 280 265 279 297 291 286 262 258 249 257 239 156 250 243 203 306 2 7 301 293 319 300 249 237 240 219 257 249 224 274 287 295 172 253 269 277 291 308 298 247 225 227 234 236 237 230 231
305 308 308 330 358 7 3 358 350 343 333 327 321 313 301 296 297 298 298 296 296 309 318 318 317 307 297 297 286 288 308 299 289 301 303 310 312 302 299 301 300 284 270 284 303 318 328 308 289 270 244 191 182 341 247 191 22 20 41 322 304 346 318 248 229 217 189 212 238 171 300 289 241 223 249 269 278 280 280 270 258 223 220 224 224 219 203 204
289 293 294 298 321 341 346 345 343 342 338 330 320 312 303 299 302 304 303 291 288 303 311 313 314 304 301 307 301 303 319 311 299 303 304 307 311 302 292 297 303 292 283 281 292 316 313 311 307 265 218 178 192 141 150 48 53 1 47 39 312 354 326 269 213 176 169 183 171 129 285 280 258 243 246 264 274 280 270 249 247 221 211 212 209 195 174 177
297 294 291 295 308 321 333 337 338 342 340 331 318 305 296 296 299 302 305 289 282 295 300 301 309 308 304 306 306 308 316 319 310 304 305 305 307 303 290 288 291 282 279 278 289 305 304 322 328 270 170 131 139 141 37 14 37 331 346 29 355 335 287 303 111 151 150 200 173 133 253 267 275 271 275 281 264 263 261 249 239 218 205 202 188 162 154 158
316 306 301 304 311 318 328 334 335 339 338 332 321 304 295 292 293 299 301 286 280 288 289 288 292 300 304 301 303 307 310 320 320 311 308 308 310 310 300 294 287 272 266 267 280 297 310 330 337 39 90 104 105 102 13 351 9 23 291 304 340 188 265 312 222 163 156 175 167 145 247 267 275 287 311 313 249 241 256 261 241 213 199 182 160 146 148 145
335 334 332 326 326 329 335 340 342 341 339 337 329 315 307 299 293 298 298 289 284 286 287 279 277 289 301 308 310 310 308 318 326 316 308 314 319 318 314 307 296 275 264 262 267 271 295 331 22 57 72 113 97 84 33 354 337 358 166 255 276 192 275 322 318 192 170 110 176 192 233 274 278 282 45 61 0 298 261 269 248 208 194 169 151 143 137 128
11 8 0 352 348 348 354 359 356 350 346 343 336 325 324 324 306 302 312 308 293 290 283 261 275 292 297 319 322 319 318 321 324 315 309 317 319 321 319 315 308 280 265 263 263 254 262 305 126 100 46 63 87 87 35 326 296 317 9 248 252 217 253 303 315 278 138 117 229 228 232 257 270 267 274 330 323 301 261 265 253 207 189 162 148 140 130 121
33 25 15 9 11 14 15 11 7 6 0 354 348 340 350 346 303 293 344 331 310 297 263 259 314 301 285 342 343 329 328 327 325 319 313 318 320 325 323 320 319 298 285 270 260 240 242 320 103 82 8 11 58 100 133 243 226 254 235 238 277 274 250 258 286 272 143 161 239 241 258 257 267 274 283 309 315 294 271 267 250 198 168 151 141 132 126 119
41 31 23 23 27 28 25 19 17 17 13 8 4 5 21 1 294 198 3 1 25 50 203 331 0 130 270 335 347 334 329 329 329 325 319 323 326 328 326 320 315 316 320 288 284 80 122 26 56 346 300 277 203 163 202 216 188 216 213 196 252 270 265 242 259 255 180 169 239 235 251 259 271 284 304 319 314 290 270 244 154 136 128 127 123 119 119 115
35 28 24 25 26 26 28 24 19 20 20 20 20 29 25 10 29 199 354 16 45 39 21 348 1 1 318 334 347 344 338 331 330 338 334 329 325 324 326 320 320 341 8 262 290 13 57 12 267 237 239 246 239 211 210 204 159 158 199 218 255 253 275 261 262 289 185 170 252 237 244 266 282 302 320 325 324 294 192 121 112 112 110 111 112 112 112 110
26 24 23 20 11 15 26 23 18 20 22 24 29 43 39 20 33 332 341 14 38 27 27 7 1 356 347 341 348 351 347 338 341 354 350 340 337 329 324 339 359 3 347 305 272 348 60 283 248 235 235 248 255 198 152 134 135 40 235 257 283 242 264 264 244 304 10 177 266 276 269 280 302 325 336 348 7 47 97 110 106 104 104 105 108 108 109 111
25 23 23 18 4 2 10 13 13 13 14 17 24 38 42 30 28 356 346 11 30 28 26 7 11 7 357 349 353 352 347 347 353 354 355 353 356 349 327 6 53 313 329 359 334 351 8 249 250 245 222 170 45 89 103 104 130 58 168 261 290 260 279 294 296 325 20 183 272 1 340 302 332 356 6 18 41 60 80 100 101 101 101 100 103 105 108 113
17 16 17 11 5 358 353 1 4 2 5 9 17 28 31 22 14 1 4 46 26 29 26 12 22 17 11 6 352 349 352 9 346 346 357 358 1 3 350 20 55 308 347 20 154 18 306 250 259 281 144 137 26 47 73 39 14 222 203 233 271 276 297 283 308 329 314 228 258 331 330 313 342 18 29 32 56 70 79 89 90 93 96 96 99 99 101 107
356 359 1 356 357 354 350 352 355 358 0 2 10 19 19 14 5 356 7 82 51 17 21 17 18 16 14 3 349 347 351 359 343 350 1 359 1 3 357 24 29 14 315 80 135 187 257 254 318 26 68 136 253 343 64 110 315 278 217 212 242 259 232 230 290 320 309 304 259 335 346 338 9 42 33 31 61 67 70 79 80 83 91 95 94 91 93 100
340 343 344 346 345 345 346 345 351 357 355 355 3 9 12 8 357 351 11 87 35 349 7 16 12 12 5 353 346 342 326 341 356 360 358 358 2 357 338 10 27 318 254 238 88 269 272 286 1 39 46 57 158 280 248 181 266 308 240 216 217 226 242 267 331 344 354 337 308 49 16 313 5 59 41 16 59 56 53 66 68 73 84 88 87 87 90 95
337 337 336 340 340 340 344 344 348 350 347 350 356 1 4 358 353 355 24 71 39 337 351 2 2 4 356 349 344 343 342 350 353 355 355 354 356 355 327 326 18 293 256 227 338 280 271 4 31 89 83 59 55 278 249 155 121 315 262 206 170 143 288 320 350 358 338 270 259 89 117 255 324 59 59 59 75 58 47 56 58 66 74 79 82 87 91 98
338 339 338 340 341 343 347 345 342 342 345 346 347 353 355 351 352 337 26 48 13 328 333 343 354 352 348 349 353 9 13 330 336 351 354 351 350 353 282 311 1 269 301 63 5 297 212 11 22 54 69 58 10 293 235 131 114 269 245 128 114 93 286 265 239 240 239 270 301 93 152 210 270 92 140 117 88 65 46 45 48 59 66 77 84 89 95 102
337 338 340 342 343 344 345 341 336 337 342 338 338 346 348 348 347 318 80 76 326 332 351 335 346 346 344 349 14 34 0 333 0 346 347 354 357 355 251 296 227 250 338 81 258 282 207 17 2 44 43 16 278 249 191 137 143 259 225 150 194 248 247 214 178 219 265 358 310 279 145 181 244 149 181 147 97 84 65 47 38 51 63 78 87 91 96 100
332 334 337 338 337 338 338 335 334 333 333 331 332 340 343 344 349 81 77 105 309 356 11 342 343 337 344 348 25 21 23 27 21 345 348 15 8 3 221 292 73 194 12 86 210 264 8 38 251 132 90 261 251 240 186 163 235 268 171 149 20 65 59 96 137 163 44 19 262 260 181 164 251 190 182 164 120 132 122 76 41 50 64 80 89 92 95 95
327 328 328 329 330 333 334 332 332 331 328 327 327 335 341 349 64 72 46 248 315 346 318 344 340 330 349 4 5 7 20 18 2 360 9 34 22 25 67 274 28 105 24 20 245 259 299 326 207 111 182 228 244 249 191 181 248 319 82 352 355 31 36 44 80 106 67 294 253 256 215 138 297 204 184 202 150 148 138 111 65 56 68 80 88 90 91 90
325 327 323 325 330 333 336 336 336 335 331 327 327 334 341 0 66 84 65 274 292 343 343 356 343 344 10 35 343 349 357 338 357 15 15 15 23 25 37 7 7 38 10 358 336 303 344 37 234 312 255 223 348 320 243 200 295 47 60 10 348 341 11 27 352 48 96 265 261 258 197 146 216 217 209 305 125 127 126 121 99 69 71 79 86 87 85 83
327 326 322 326 332 337 342 342 342 342 339 336 334 336 359 52 29 80 286 320 330 341 351 326 327 357 8 15 341 334 337 331 354 30 33 20 36 20 29 47 343 14 4 338 329 329 344 299 278 314 286 179 56 349 336 356 35 47 31 34 24 341 357 354 312 325 197 245 254 352 35 176 206 227 5 52 109 118 121 117 105 86 74 74 80 84 83 75
332 328 326 329 337 343 346 345 343 344 343 341 336 343 76 77 29 253 279 328 355 331 338 297 318 344 345 358 349 328 338 328 345 13 30 64 64 26 351 3 61 43 350 301 344 348 334 299 311 334 304 23 80 20 329 320 6 359 337 82 80 10 355 302 281 295 279 266 265 347 355 266 174 59 11 70 110 118 118 110 97 85 74 69 71 78 80 67
330 329 328 333 343 344 343 343 341 344 345 343 342 35 66 65 248 294 306 280 296 332 351 332 322 341 25 26 328 326 3 324 340 10 0 22 47 8 332 344 15 52 356 338 3 12 7 305 302 337 343 7 51 233 230 216 323 313 189 124 126 161 221 267 245 242 277 286 296 310 320 229 175 70 349 100 116 117 116 107 94 83 70 63 61 62 65 52
321 326 332 342 347 339 340 341 340 347 345 346 24 63 76 86 257 323 302 274 298 326 321 337 1 13 13 332 307 16 64 306 336 13 10 32 65 339 339 324 339 35 64 13 330 207 108 266 265 312 4 14 338 258 140 67 343 284 141 90 158 185 171 239 212 198 247 307 309 288 132 248 135 93 44 111 115 116 115 102 89 76 59 52 46 43 49 40
319 331 350 349 342 340 344 344 347 353 346 21 63 57 113 190 266 176 264 310 333 312 319 349 34 32 344 315 323 9 66 270 332 359 355 39 152 248 316 266 296 41 65 48 296 318 14 275 279 337 2 86 60 262 305 17 318 269 70 265 245 184 134 186 277 341 47 334 287 163 124 74 93 120 150 128 113 111 109 92 79 66 51 43 33 31 38 35
330 348 6 354 352 353 351 356 5 7 24 78 83 79 198 196 167 200 285 326 285 282 10 14 14 12 332 316 311 325 348 329 333 0 336 325 323 244 302 270 249 31 41 121 264 274 215 275 292 333 315 301 325 280 303 324 156 97 280 255 257 134 97 99 290 345 13 268 272 176 152 191 173 153 186 160 123 111 103 82 71 56 44 34 23 22 29 23
357 35 20 6 3 3 6 11 9 37 71 75 79 115 166 336 260 251 303 324 266 350 62 52 322 15 35 290 286 300 335 344 338 0 339 316 358 115 90 1 280 334 9 62 264 272 164 284 300 328 249 295 330 350 330 325 50 154 238 264 21 91 319 7 18 314 328 282 289 314 276 202 196 181 171 170 145 127 117 82 65 43 38 27 11 11 15 343
33 87 23 9 6 15 27 26 37 83 79 69 77 122 120 266 270 299 327 333 242 76 69 216 281 3 8 210 268 297 325 337 330 348 3 328 337 61 86 44 325 344 355 69 196 272 52 284 290 294 266 300 346 16 340 318 331 15 351 335 41 165 200 244 185 195 255 282 287 318 326 244 234 189 155 155 146 128 116 93 61 34 25 10 358 353 330 322
58 102 17 7 9 24 39 51 65 72 71 79 158 154 293 257 297 334 353 341 297 90 43 217 199 334 314 293 294 301 309 298 303 305 264 312 322 354 53 43 328 332 335 21 130 310 4 178 266 290 316 327 333 358 316 291 308 345 6 349 327 307 287 305 304 142 140 255 242 314 306 262 293 55 128 121 109 112 99 96 60 25 1 347 341 318 301 322
78 90 7 11 25 30 62 70 56 59 75 88 110 100 345 347 328 343 4 349 343 46 175 169 151 237 293 329 314 286 305 309 305 265 259 298 334 346 25 38 357 334 346 13 40 351 357 174 256 300 331 317 282 287 283 252 226 173 55 323 249 322 8 333 303 317 63 191 187 232 287 266 314 59 115 107 104 102 84 86 52 5 339 332 325 299 312 323
71 62 2 16 36 51 84 75 35 40 98 68 47 50 13 358 346 359 9 1 348 340 1 127 118 158 185 260 293 279 313 300 264 262 263 238 229 293 7 24 10 348 6 346 311 315 107 101 324 288 283 282 287 308 33 174 144 131 125 68 115 59 61 232 268 288 317 267 178 171 267 269 337 61 97 97 103 104 86 74 28 343 335 332 317 298 319 320
65 52 18 25 53 89 91 74 6 24 66 67 130 53 29 25 7 359 1 9 3 343 4 43 48 9 221 269 330 308 304 270 217 217 272 248 275 329 18 27 10 356 12 332 316 2 36 71 3 292 282 301 311 341 43 43 75 86 345 39 84 327 84 185 219 217 237 260 234 232 262 237 112 89 98 100 100 109 99 51 8 343 337 333 314 308 321 320
69 54 38 37 61 117 97 93 93 67 11 351 77 35 14 34 24 5 345 4 6 6 32 16 353 16 334 3 131 254 283 308 261 294 345 250 318 27 41 26 13 12 24 13 345 355 345 321 6 334 327 339 344 353 351 347 32 39 311 356 43 297 337 183 224 70 236 242 207 227 268 214 128 110 96 96 82 86 73 10 351 339 337 333 319 318 321 318
72 56 45 47 67 97 93 99 128 125 110 57 52 18 3 21 22 16 350 357 14 20 34 333 304 276 308 351 308 287 300 238 263 330 16 311 298 48 37 15 15 27 25 13 353 347 323 227 25 20 326 320 324 321 324 331 327 304 319 339 344 327 310 273 242 90 244 264 38 198 256 7 148 154 91 63 59 38 356 344 338 334 338 334 321 318 319 316
77 65 38 43 60 73 74 71 89 108 122 90 53 14 19 359 332 357 358 1 12 4 345 310 311 292 345 15 354 312 310 250 257 314 350 304 275 2 17 18 35 38 28 20 10 17 93 279 275 177 218 251 267 275 293 334 311 302 334 332 328 331 309 183 116 242 248 302 339 256 269 334 293 165 56 23 27 358 335 336 336 335 338 333 320 318 322 316
72 57 5 32 49 57 56 50 55 76 109 107 90 11 1 332 311 351 8 345 353 353 355 40 12 26 5 359 359 305 302 315 290 287 316 290 266 323 0 33 51 32 29 32 12 33 83 341 309 223 246 252 255 274 293 319 299 297 342 327 323 333 350 86 83 295 296 340 307 263 8 334 332 74 40 5 347 332 330 338 337 333 333 330 324 326 330 321
86 92 75 76 59 41 43 35 48 66 62 64 108 56 1 357 348 356 327 316 344 8 20 9 13 30 358 322 2 311 314 334 324 279 312 332 324 336 354 40 59 29 24 24 10 53 106 270 278 247 281 280 281 285 290 297 291 31 5 324 333 351 34 76 49 281 353 329 282 309 333 327 355 49 27 356 340 328 327 335 335 331 330 330 330 338 341 332
103 110 81 81 92 94 90 41 50 66 51 37 70 58 30 22 3 319 259 324 347 9 37 5 329 345 335 223 137 317 318 339 322 301 308 348 347 353 344 353 44 20 17 17 7 52 100 252 263 229 293 293 296 300 304 309 351 46 10 341 347 359 47 63 306 287 324 290 268 314 323 326 45 43 356 346 342 333 329 332 332 331 331 335 343 349 344 336
109 111 105 101 91 66 61 41 41 69 44 24 53 39 23 55 346 311 254 346 333 334 30 0 309 317 315 172 152 230 266 243 262 272 276 345 335 353 352 282 288 356 7 21 354 20 52 287 318 58 326 297 299 320 335 329 157 114 9 355 355 353 15 26 345 327 329 302 299 324 321 326 56 17 349 342 341 337 334 333 334 334 335 344 353 350 343 338
113 116 116 108 80 25 30 31 35 79 41 12 40 11 344 18 315 305 267 218 240 299 334 324 306 316 341 86 166 254 281 272 256 268 276 286 280 245 259 315 355 347 353 10 341 2 44 341 354 46 354 290 301 346 328 324 81 98 11 351 350 351 358 349 330 324 315 306 311 321 326 346 7 353 343 338 339 339 338 336 333 332 339 351 350 345 343 341
117 120 117 108 83 11 20 30 30 65 70 331 346 297 315 316 312 334 326 270 275 327 319 311 325 340 336 336 321 305 309 308 290 286 284 273 265 258 264 282 307 305 287 24 359 1 70 33 340 29 337 283 305 334 314 325 48 34 327 334 322 308 314 319 321 325 335 341 318 319 341 351 344 342 338 337 341 340 337 333 327 325 342 349 343 342 342 340